BCS137 LIMC-EDDP

Flight info

Callsign BCS137
Flight time 1h 10m
Altitude 35000
Route PEPAG DCT ABESI N851 UTAVO DCT ROLSA DCT LOKTA DCT ETAGO DCT IBAGA T435 PIBAD T954 GOXLI GOXLI1V
Aircraft B738/M-SDE2E3FGHIRWXY/LB1

Departure

Time 2026-05-05 12:23
Airport Milan Malpensa International Airport (LIMC)

Arrival

Time 2026-05-05 13:33
Airport Leipzig/Halle Airport (EDDP)
Time Latitude Longitude Altitude Speed Heading
2026-05-05 11:39 45.62058 8.71845 752 ft 0 kts 258°
2026-05-05 11:56 45.62060 8.71858 752 ft 3 kts 259°
2026-05-05 11:57 45.62064 8.71891 752 ft 3 kts 260°
2026-05-05 11:57 45.62068 8.71925 749 ft 3 kts 263°
2026-05-05 11:57 45.62070 8.71959 752 ft 3 kts 275°
2026-05-05 11:57 45.62065 8.71988 748 ft 3 kts 316°
2026-05-05 11:58 45.62048 8.71999 752 ft 3 kts 350°
2026-05-05 11:58 45.62024 8.72004 752 ft 3 kts 350°
2026-05-05 11:58 45.62007 8.72009 752 ft 0 kts 348°
2026-05-05 12:07 45.62008 8.72009 752 ft 0 kts 348°
2026-05-05 12:07 45.62011 8.72011 752 ft 1 kts 19°
2026-05-05 12:08 45.62011 8.72028 752 ft 2 kts 120°
2026-05-05 12:08 45.61978 8.72021 748 ft 8 kts 191°
2026-05-05 12:08 45.61930 8.72027 752 ft 8 kts 169°
2026-05-05 12:08 45.61901 8.72036 752 ft 5 kts 169°
2026-05-05 12:09 45.61880 8.72042 748 ft 0 kts 169°
2026-05-05 12:11 45.61870 8.72045 750 ft 5 kts 168°
2026-05-05 12:12 45.61836 8.72110 752 ft 7 kts 87°
2026-05-05 12:12 45.61846 8.72204 752 ft 11 kts 77°
2026-05-05 12:12 45.61923 8.72231 752 ft 14 kts 349°
2026-05-05 12:12 45.62016 8.72206 752 ft 13 kts 349°
2026-05-05 12:13 45.62106 8.72181 750 ft 13 kts 349°
2026-05-05 12:13 45.62190 8.72183 751 ft 13 kts 40°
2026-05-05 12:13 45.62217 8.72297 746 ft 12 kts 78°
2026-05-05 12:13 45.62235 8.72413 745 ft 12 kts 78°
2026-05-05 12:14 45.62251 8.72527 745 ft 12 kts 79°
2026-05-05 12:14 45.62265 8.72639 748 ft 11 kts 80°
2026-05-05 12:14 45.62280 8.72747 751 ft 11 kts 79°
2026-05-05 12:14 45.62294 8.72855 751 ft 13 kts 78°
2026-05-05 12:15 45.62296 8.72993 748 ft 15 kts 118°
2026-05-05 12:15 45.62196 8.73049 751 ft 17 kts 169°
2026-05-05 12:15 45.62078 8.73081 750 ft 17 kts 169°
2026-05-05 12:15 45.61965 8.73112 751 ft 16 kts 169°
2026-05-05 12:16 45.61857 8.73142 752 ft 16 kts 169°
2026-05-05 12:16 45.61756 8.73187 749 ft 15 kts 144°
2026-05-05 12:16 45.61695 8.73303 750 ft 14 kts 124°
2026-05-05 12:16 45.61647 8.73403 750 ft 10 kts 124°
2026-05-05 12:17 45.61628 8.73445 752 ft 0 kts 124°
2026-05-05 12:17 45.61627 8.73445 752 ft 1 kts 124°
2026-05-05 12:17 45.61611 8.73481 752 ft 5 kts 123°
2026-05-05 12:17 45.61594 8.73524 749 ft 5 kts 114°
2026-05-05 12:18 45.61584 8.73569 751 ft 5 kts 99°
2026-05-05 12:18 45.61585 8.73612 749 ft 0 kts 85°
2026-05-05 12:19 45.61585 8.73616 746 ft 2 kts 85°
2026-05-05 12:19 45.61596 8.73700 743 ft 16 kts 77°
2026-05-05 12:19 45.61633 8.73733 744 ft 4 kts 347°
2026-05-05 12:19 45.61667 8.73723 742 ft 0 kts 350°
2026-05-05 12:21 45.61668 8.73723 744 ft 1 kts 350°
2026-05-05 12:22 45.61721 8.73710 743 ft 18 kts 349°
2026-05-05 12:22 45.62034 8.73625 742 ft 82 kts 349°
2026-05-05 12:22 45.62822 8.73400 746 ft 146 kts 348°
2026-05-05 12:22 45.63932 8.73086 1181 ft 172 kts 349°
2026-05-05 12:23 45.65221 8.72756 1754 ft 192 kts 351°
2026-05-05 12:23 45.66570 8.72962 2477 ft 199 kts 21°
2026-05-05 12:23 45.67641 8.74143 3009 ft 201 kts 64°
2026-05-05 12:23 45.67932 8.76075 3554 ft 201 kts 82°
2026-05-05 12:24 45.68639 8.77797 4048 ft 209 kts 41°
2026-05-05 12:24 45.69787 8.79089 4582 ft 212 kts 45°
2026-05-05 12:24 45.70864 8.80544 4978 ft 214 kts 49°
2026-05-05 12:24 45.71895 8.82048 4991 ft 210 kts 50°
2026-05-05 12:25 45.72831 8.83614 4989 ft 209 kts 68°
2026-05-05 12:25 45.72933 8.85593 5028 ft 210 kts 111°
2026-05-05 12:25 45.72141 8.87422 5030 ft 221 kts 127°
2026-05-05 12:25 45.71224 8.89192 5022 ft 221 kts 127°
2026-05-05 12:26 45.70304 8.90971 5006 ft 223 kts 126°
2026-05-05 12:26 45.69385 8.92758 5009 ft 224 kts 126°
2026-05-05 12:26 45.68460 8.94568 5003 ft 225 kts 126°
2026-05-05 12:26 45.67550 8.96352 4994 ft 224 kts 126°
2026-05-05 12:27 45.66636 8.98147 5003 ft 223 kts 126°
2026-05-05 12:27 45.65723 8.99943 4986 ft 223 kts 126°
2026-05-05 12:27 45.64863 9.01778 4984 ft 221 kts 114°
2026-05-05 12:27 45.64572 9.03970 5018 ft 232 kts 94°
2026-05-05 12:28 45.64552 9.06294 4985 ft 234 kts 91°
2026-05-05 12:28 45.64577 9.08650 5158 ft 239 kts 91°
2026-05-05 12:28 45.64606 9.11055 5340 ft 252 kts 91°
2026-05-05 12:28 45.64633 9.13519 6108 ft 242 kts 91°
2026-05-05 12:29 45.64656 9.15915 6777 ft 242 kts 91°
2026-05-05 12:29 45.64675 9.18439 6859 ft 259 kts 91°
2026-05-05 12:29 45.64693 9.20972 7597 ft 253 kts 92°
2026-05-05 12:29 45.64709 9.23506 8147 ft 258 kts 92°
2026-05-05 12:30 45.64988 9.26038 8574 ft 270 kts 69°
2026-05-05 12:30 45.66204 9.28232 8431 ft 297 kts 32°
2026-05-05 12:30 45.68142 9.29215 9042 ft 297 kts
2026-05-05 12:30 45.70142 9.29003 9140 ft 288 kts 342°
2026-05-05 12:31 45.71932 9.27866 9951 ft 275 kts 327°
2026-05-05 12:31 45.73545 9.26458 10794 ft 273 kts 324°
2026-05-05 12:31 45.75173 9.25017 11547 ft 277 kts 324°
2026-05-05 12:31 45.76839 9.23598 12303 ft 281 kts 325°
2026-05-05 12:32 45.78560 9.22190 12988 ft 290 kts 326°
2026-05-05 12:32 45.80340 9.20776 13602 ft 300 kts 327°
2026-05-05 12:32 45.82192 9.19340 14321 ft 305 kts 327°
2026-05-05 12:32 45.84073 9.17906 15126 ft 307 kts 327°
2026-05-05 12:33 45.85979 9.16463 15799 ft 315 kts 327°
2026-05-05 12:33 45.88001 9.14930 15989 ft 340 kts 327°
2026-05-05 12:33 45.90142 9.13312 16149 ft 363 kts 328°
2026-05-05 12:33 45.92439 9.11583 16443 ft 379 kts 328°
2026-05-05 12:34 45.94803 9.09807 17109 ft 385 kts 328°
2026-05-05 12:34 45.97218 9.08057 17772 ft 395 kts 332°
2026-05-05 12:34 45.98402 9.07394 17823 ft 407 kts 338°
2026-05-05 12:34 46.01243 9.06458 17973 ft 430 kts 349°
2026-05-05 12:35 46.04284 9.05984 18110 ft 448 kts 352°
2026-05-05 12:35 46.07431 9.05579 18326 ft 460 kts 352°
2026-05-05 12:35 46.10607 9.05148 18717 ft 465 kts 352°
2026-05-05 12:35 46.13837 9.04658 19218 ft 467 kts 351°
2026-05-05 12:36 46.17078 9.04144 19743 ft 469 kts 351°
2026-05-05 12:36 46.20338 9.03673 20184 ft 473 kts 352°
2026-05-05 12:36 46.23643 9.03232 20598 ft 477 kts 352°
2026-05-05 12:36 46.26966 9.02799 21040 ft 480 kts 352°
2026-05-05 12:37 46.30300 9.02361 21483 ft 483 kts 352°
2026-05-05 12:37 46.33613 9.01917 21870 ft 486 kts 352°
2026-05-05 12:37 46.36992 9.01460 22250 ft 489 kts 352°
2026-05-05 12:37 46.40394 9.00997 22570 ft 492 kts 352°
2026-05-05 12:38 46.43789 9.00535 22923 ft 495 kts 352°
2026-05-05 12:38 46.47227 9.00071 23240 ft 498 kts 352°
2026-05-05 12:38 46.50690 8.99605 23562 ft 500 kts 352°
2026-05-05 12:38 46.54166 8.99137 23879 ft 503 kts 352°
2026-05-05 12:39 46.57660 8.98667 24183 ft 505 kts 352°
2026-05-05 12:39 46.61170 8.98193 24482 ft 506 kts 352°
2026-05-05 12:39 46.62968 8.97950 24617 ft 507 kts 352°
2026-05-05 12:39 46.66527 8.97468 24908 ft 508 kts 352°
2026-05-05 12:40 46.70060 8.96988 25073 ft 511 kts 352°
2026-05-05 12:40 46.72404 8.96670 25217 ft 512 kts 352°
2026-05-05 12:40 46.75952 8.96188 25488 ft 512 kts 353°
2026-05-05 12:40 46.79498 8.95707 25679 ft 512 kts 353°
2026-05-05 12:41 46.84204 8.95066 25895 ft 514 kts 353°
2026-05-05 12:41 46.86627 8.94734 25944 ft 516 kts 353°
2026-05-05 12:41 46.90207 8.94245 25988 ft 518 kts 353°
2026-05-05 12:41 46.93747 8.93760 26148 ft 518 kts 353°
2026-05-05 12:42 46.97346 8.93267 26355 ft 517 kts 353°
2026-05-05 12:42 47.00927 8.92776 26612 ft 516 kts 353°
2026-05-05 12:42 47.04500 8.92285 26859 ft 515 kts 353°
2026-05-05 12:42 47.08033 8.91799 27065 ft 515 kts 353°
2026-05-05 12:43 47.11646 8.91302 27242 ft 516 kts 353°
2026-05-05 12:43 47.15225 8.90808 27439 ft 516 kts 353°
2026-05-05 12:43 47.18796 8.90314 27670 ft 515 kts 353°
2026-05-05 12:43 47.22364 8.89820 27907 ft 515 kts 353°
2026-05-05 12:44 47.25936 8.89335 28127 ft 515 kts 355°
2026-05-05 12:44 47.29518 8.89260 28274 ft 517 kts
2026-05-05 12:44 47.34700 8.90516 28597 ft 516 kts 13°
2026-05-05 12:45 47.38193 8.91733 28865 ft 515 kts 14°
2026-05-05 12:45 47.41681 8.92969 29089 ft 516 kts 14°
2026-05-05 12:45 47.45183 8.94197 29309 ft 516 kts 14°
2026-05-05 12:45 47.48674 8.95396 29557 ft 515 kts 14°
2026-05-05 12:46 47.52168 8.96576 29910 ft 514 kts 14°
2026-05-05 12:46 47.55648 8.97739 30254 ft 513 kts 13°
2026-05-05 12:46 47.59141 8.98899 30563 ft 513 kts 13°
2026-05-05 12:46 47.62623 9.00056 30839 ft 512 kts 13°
2026-05-05 12:47 47.66093 9.01211 31090 ft 511 kts 13°
2026-05-05 12:47 47.69569 9.02370 31338 ft 510 kts 14°
2026-05-05 12:47 47.73019 9.03525 31574 ft 509 kts 13°
2026-05-05 12:47 47.76476 9.04684 31784 ft 508 kts 13°
2026-05-05 12:48 47.79932 9.05846 31988 ft 508 kts 13°
2026-05-05 12:48 47.83332 9.06990 32205 ft 507 kts 13°
2026-05-05 12:48 47.86787 9.08154 32428 ft 507 kts 13°
2026-05-05 12:48 47.90225 9.09314 32636 ft 507 kts 14°
2026-05-05 12:49 47.93685 9.10483 32813 ft 507 kts 14°
2026-05-05 12:49 47.97082 9.11632 33010 ft 507 kts 13°
2026-05-05 12:49 47.98834 9.12225 33129 ft 506 kts 13°
2026-05-05 12:49 48.02038 9.13311 33342 ft 506 kts 13°
2026-05-05 12:50 48.05470 9.14476 33557 ft 505 kts 13°
2026-05-05 12:50 48.08902 9.15643 33765 ft 505 kts 13°
2026-05-05 12:50 48.15790 9.17989 33997 ft 509 kts 14°
2026-05-05 12:51 48.19205 9.19362 34172 ft 507 kts 18°
2026-05-05 12:51 48.22562 9.20954 34396 ft 506 kts 19°
2026-05-05 12:51 48.25901 9.22634 34567 ft 505 kts 20°
2026-05-05 12:51 48.29240 9.24340 34736 ft 505 kts 19°
2026-05-05 12:52 48.32569 9.26030 34850 ft 506 kts 19°
2026-05-05 12:52 48.35871 9.27686 34855 ft 507 kts 19°
2026-05-05 12:52 48.42570 9.31001 34849 ft 505 kts 19°
2026-05-05 12:53 48.49248 9.34292 34848 ft 505 kts 19°
2026-05-05 12:53 48.55547 9.37408 34861 ft 505 kts 19°
2026-05-05 12:54 48.63818 9.41519 34856 ft 505 kts 19°
2026-05-05 12:55 48.70490 9.44861 34853 ft 505 kts 20°
2026-05-05 12:55 48.76689 9.49795 34854 ft 501 kts 37°
2026-05-05 12:56 48.82341 9.55898 34852 ft 501 kts 38°
2026-05-05 12:56 48.88026 9.62085 34834 ft 502 kts 37°
2026-05-05 12:57 48.93703 9.68181 34828 ft 503 kts 37°
2026-05-05 12:57 48.99442 9.74308 34828 ft 503 kts 36°
2026-05-05 12:58 49.05179 9.80444 34832 ft 504 kts 37°
2026-05-05 12:58 49.10930 9.86615 34842 ft 505 kts 37°
2026-05-05 12:59 49.16676 9.92804 34824 ft 505 kts 37°
2026-05-05 12:59 49.21001 9.97474 34829 ft 505 kts 37°
2026-05-05 13:00 49.29601 10.06793 34837 ft 505 kts 37°
2026-05-05 13:01 49.41005 10.19210 34827 ft 506 kts 37°
2026-05-05 13:01 49.46750 10.25494 34822 ft 507 kts 37°
2026-05-05 13:02 49.52467 10.31765 34795 ft 507 kts 37°
2026-05-05 13:02 49.58226 10.38101 34776 ft 509 kts 36°
2026-05-05 13:03 49.63956 10.44424 34803 ft 510 kts 36°
2026-05-05 13:03 49.69727 10.50811 34805 ft 511 kts 36°
2026-05-05 13:04 49.75550 10.57084 34798 ft 509 kts 30°
2026-05-05 13:04 49.80216 10.60910 34822 ft 507 kts 26°
2026-05-05 13:05 49.86563 10.65737 34492 ft 513 kts 25°
2026-05-05 13:05 49.89767 10.68214 33905 ft 510 kts 26°
2026-05-05 13:05 49.92906 10.70690 33394 ft 502 kts 26°
2026-05-05 13:06 49.95990 10.73153 32950 ft 494 kts 26°
2026-05-05 13:06 49.99028 10.75594 32487 ft 488 kts 26°
2026-05-05 13:06 50.01993 10.77977 31903 ft 484 kts 26°
2026-05-05 13:06 50.04986 10.80379 31215 ft 484 kts 26°
2026-05-05 13:07 50.07979 10.82751 30648 ft 480 kts 25°
2026-05-05 13:07 50.11009 10.84883 30173 ft 475 kts 22°
2026-05-05 13:07 50.14053 10.86854 29648 ft 470 kts 21°
2026-05-05 13:07 50.17068 10.88756 29090 ft 466 kts 21°
2026-05-05 13:08 50.20057 10.90649 28559 ft 461 kts 21°
2026-05-05 13:08 50.23015 10.92549 28026 ft 457 kts 21°
2026-05-05 13:08 50.25902 10.94429 27494 ft 453 kts 22°
2026-05-05 13:08 50.28793 10.96328 26999 ft 449 kts 22°
2026-05-05 13:09 50.31666 10.98222 26511 ft 445 kts 22°
2026-05-05 13:09 50.34505 11.00096 26027 ft 441 kts 22°
2026-05-05 13:09 50.35898 11.01015 25793 ft 439 kts 22°
2026-05-05 13:09 50.38702 11.02867 25308 ft 436 kts 22°
2026-05-05 13:10 50.41473 11.04772 24831 ft 433 kts 23°
2026-05-05 13:10 50.44170 11.06724 24388 ft 430 kts 24°
2026-05-05 13:10 50.46876 11.08717 23958 ft 426 kts 24°
2026-05-05 13:10 50.49550 11.10687 23532 ft 423 kts 24°
2026-05-05 13:11 50.52203 11.12631 23039 ft 419 kts 24°
2026-05-05 13:11 50.54844 11.14559 22540 ft 416 kts 24°
2026-05-05 13:11 50.57410 11.16429 22061 ft 413 kts 24°
2026-05-05 13:11 50.60003 11.18317 21553 ft 410 kts 24°
2026-05-05 13:12 50.62594 11.20208 21075 ft 406 kts 24°
2026-05-05 13:12 50.65135 11.22060 20479 ft 401 kts 24°
2026-05-05 13:12 50.67661 11.23891 19807 ft 399 kts 24°
2026-05-05 13:12 50.70154 11.25697 19172 ft 397 kts 24°
2026-05-05 13:13 50.72632 11.27495 18595 ft 393 kts 24°
2026-05-05 13:13 50.75111 11.29295 18041 ft 389 kts 24°
2026-05-05 13:13 50.77530 11.31056 17402 ft 387 kts 24°
2026-05-05 13:13 50.79963 11.32830 16839 ft 385 kts 24°
2026-05-05 13:14 50.82416 11.34620 16340 ft 388 kts 24°
2026-05-05 13:14 50.84876 11.36418 15862 ft 391 kts 24°
2026-05-05 13:14 50.86107 11.37318 15628 ft 392 kts 24°
2026-05-05 13:14 50.88589 11.39136 15151 ft 394 kts 24°
2026-05-05 13:15 50.91056 11.40944 14682 ft 395 kts 24°
2026-05-05 13:15 50.93557 11.42780 14207 ft 396 kts 24°
2026-05-05 13:15 50.96061 11.44621 13728 ft 397 kts 24°
2026-05-05 13:15 50.98567 11.46466 13190 ft 397 kts 24°
2026-05-05 13:16 51.01050 11.48296 12677 ft 397 kts 24°
2026-05-05 13:16 51.03572 11.50156 12168 ft 396 kts 24°
2026-05-05 13:16 51.06074 11.52003 11674 ft 396 kts 24°
2026-05-05 13:16 51.08560 11.53870 11181 ft 393 kts 27°
2026-05-05 13:17 51.10732 11.56415 10828 ft 383 kts 46°
2026-05-05 13:17 51.12291 11.59678 10586 ft 369 kts 62°
2026-05-05 13:17 51.13345 11.63320 10345 ft 356 kts 68°
2026-05-05 13:17 51.14288 11.66903 10122 ft 346 kts 69°
2026-05-05 13:18 51.15198 11.70393 9884 ft 336 kts 69°
2026-05-05 13:18 51.16086 11.73788 9654 ft 330 kts 69°
2026-05-05 13:18 51.16968 11.77140 9419 ft 324 kts 69°
2026-05-05 13:18 51.17833 11.80412 9194 ft 316 kts 68°
2026-05-05 13:19 51.18688 11.83617 8989 ft 311 kts 68°
2026-05-05 13:19 51.19523 11.86759 8728 ft 305 kts 68°
2026-05-05 13:19 51.20344 11.89855 8468 ft 300 kts 68°
2026-05-05 13:19 51.21151 11.92901 8210 ft 296 kts 68°
2026-05-05 13:20 51.21947 11.95908 7964 ft 292 kts 68°
2026-05-05 13:20 51.22689 11.98903 7706 ft 288 kts 69°
2026-05-05 13:20 51.23405 12.01887 7454 ft 287 kts 70°
2026-05-05 13:20 51.23847 12.04950 7204 ft 286 kts 85°
2026-05-05 13:21 51.23990 12.08113 6971 ft 285 kts 88°
2026-05-05 13:21 51.24087 12.11229 6722 ft 283 kts 88°
2026-05-05 13:21 51.24194 12.14318 6484 ft 282 kts 87°
2026-05-05 13:21 51.24323 12.17443 6248 ft 281 kts 86°
2026-05-05 13:22 51.24463 12.20541 5997 ft 279 kts 86°
2026-05-05 13:22 51.24605 12.23621 5739 ft 276 kts 86°
2026-05-05 13:22 51.24747 12.26662 5484 ft 274 kts 86°
2026-05-05 13:22 51.24888 12.29693 5228 ft 272 kts 85°
2026-05-05 13:23 51.25027 12.32700 4983 ft 270 kts 85°
2026-05-05 13:23 51.25162 12.35647 4890 ft 269 kts 85°
2026-05-05 13:23 51.25467 12.38638 4852 ft 270 kts 70°
2026-05-05 13:23 51.26195 12.41290 4850 ft 258 kts 65°
2026-05-05 13:24 51.26923 12.43829 4828 ft 244 kts 65°
2026-05-05 13:24 51.27605 12.46244 4827 ft 231 kts 65°
2026-05-05 13:24 51.28252 12.48468 4849 ft 216 kts 65°
2026-05-05 13:24 51.28867 12.50558 4841 ft 199 kts 65°
2026-05-05 13:25 51.29436 12.52472 4818 ft 182 kts 64°
2026-05-05 13:25 51.29957 12.54217 4840 ft 175 kts 64°
2026-05-05 13:25 51.30483 12.55985 4854 ft 177 kts 64°
2026-05-05 13:25 51.31006 12.57750 4840 ft 173 kts 64°
2026-05-05 13:26 51.31518 12.59476 4647 ft 171 kts 64°
2026-05-05 13:26 51.32022 12.61172 4436 ft 170 kts 64°
2026-05-05 13:26 51.32527 12.62877 4207 ft 169 kts 64°
2026-05-05 13:26 51.33219 12.64241 4152 ft 159 kts 22°
2026-05-05 13:27 51.34418 12.64111 4403 ft 200 kts 334°
2026-05-05 13:27 51.35265 12.63333 4471 ft 220 kts 330°
2026-05-05 13:27 51.37036 12.61695 4415 ft 215 kts 331°
2026-05-05 13:27 51.38286 12.60608 4318 ft 202 kts 332°
2026-05-05 13:28 51.39491 12.59591 4220 ft 191 kts 333°
2026-05-05 13:28 51.40641 12.58636 4098 ft 182 kts 333°
2026-05-05 13:28 51.41746 12.57694 3864 ft 180 kts 327°
2026-05-05 13:28 51.42462 12.56097 3528 ft 182 kts 280°
2026-05-05 13:29 51.42531 12.54103 3256 ft 180 kts 274°
2026-05-05 13:29 51.42574 12.52751 3135 ft 178 kts 273°
2026-05-05 13:29 51.42573 12.50790 3159 ft 179 kts 269°
2026-05-05 13:29 51.42508 12.48781 3189 ft 189 kts 267°
2026-05-05 13:30 51.42411 12.46656 3028 ft 188 kts 266°
2026-05-05 13:30 51.42313 12.44632 2835 ft 175 kts 266°
2026-05-05 13:30 51.42220 12.42736 2584 ft 166 kts 267°
2026-05-05 13:30 51.42130 12.40885 2377 ft 167 kts 268°
2026-05-05 13:31 51.42039 12.39007 2156 ft 170 kts 268°
2026-05-05 13:31 51.41949 12.37127 1925 ft 168 kts 267°
2026-05-05 13:31 51.41858 12.35258 1695 ft 169 kts 268°
2026-05-05 13:31 51.41770 12.33379 1463 ft 170 kts 268°
2026-05-05 13:32 51.41695 12.31493 1203 ft 169 kts 268°
2026-05-05 13:32 51.41601 12.29622 989 ft 168 kts 267°
2026-05-05 13:32 51.41497 12.27735 768 ft 172 kts 268°
2026-05-05 13:32 51.41400 12.25844 592 ft 174 kts 269°
2026-05-05 13:33 51.41327 12.23935 497 ft 167 kts 268°
2026-05-05 13:33 51.41255 12.22241 469 ft 128 kts 262°
2026-05-05 13:33 51.41197 12.21216 453 ft 72 kts 266°
2026-05-05 13:33 51.41146 12.20790 433 ft 22 kts 236°
2026-05-05 13:34 51.41041 12.20682 436 ft 16 kts 171°
2026-05-05 13:34 51.41005 12.20755 427 ft 8 kts 98°
2026-05-05 13:34 51.41010 12.20839 442 ft 7 kts 85°
2026-05-05 13:34 51.41012 12.20921 443 ft 7 kts 89°
2026-05-05 13:35 51.41015 12.21023 446 ft 13 kts 85°
2026-05-05 13:35 51.41022 12.21158 453 ft 12 kts 85°
2026-05-05 13:35 51.41025 12.21232 456 ft 3 kts 85°
2026-05-05 13:35 51.41030 12.21327 458 ft 14 kts 85°
2026-05-05 13:36 51.41042 12.21534 462 ft 23 kts 84°
2026-05-05 13:36 51.41048 12.21707 467 ft 13 kts 85°
2026-05-05 13:36 51.41055 12.21845 467 ft 14 kts 85°
2026-05-05 13:36 51.41062 12.21995 467 ft 11 kts 85°
2026-05-05 13:37 51.41069 12.22137 467 ft 14 kts 85°
2026-05-05 13:37 51.41076 12.22299 465 ft 15 kts 85°
2026-05-05 13:37 51.41084 12.22483 467 ft 18 kts 86°
2026-05-05 13:37 51.41094 12.22683 470 ft 18 kts 86°
2026-05-05 13:38 51.41103 12.22880 469 ft 18 kts 86°
2026-05-05 13:38 51.41112 12.23072 476 ft 17 kts 85°
2026-05-05 13:38 51.41120 12.23239 472 ft 15 kts 86°
2026-05-05 13:38 51.41128 12.23404 477 ft 15 kts 85°
2026-05-05 13:39 51.41136 12.23583 472 ft 18 kts 85°
2026-05-05 13:39 51.41147 12.23805 474 ft 21 kts 85°
2026-05-05 13:39 51.41158 12.24016 476 ft 15 kts 86°
2026-05-05 13:39 51.41165 12.24197 472 ft 17 kts 86°
2026-05-05 13:40 51.41164 12.24356 474 ft 14 kts 116°
2026-05-05 13:40 51.41100 12.24425 469 ft 13 kts 127°
2026-05-05 13:40 51.41093 12.24537 468 ft 8 kts 85°
2026-05-05 13:40 51.41084 12.24628 469 ft 9 kts 129°
2026-05-05 13:41 51.41016 12.24653 470 ft 13 kts 176°
2026-05-05 13:41 51.40939 12.24663 467 ft 14 kts 175°
2026-05-05 13:41 51.40885 12.24669 466 ft 4 kts 175°
2026-05-05 13:41 51.40867 12.24672 465 ft 6 kts 175°
2026-05-05 13:42 51.40845 12.24645 463 ft 5 kts 250°
2026-05-05 13:42 51.40844 12.24564 462 ft 8 kts 266°
2026-05-05 13:42 51.40842 12.24515 464 ft 2 kts 265°
2026-05-05 13:42 51.40842 12.24510 464 ft 0 kts 265°